Weather History for Fairbanks, AK

Change the Weather History Date:

Monday, October 24, 2011

  Actual Average Record
Temperature  
Mean Temperature 24 °F 17 °F  
Max Temperature 35 °F 25 °F 56 °F (1938)
Min Temperature 12 °F 10 °F -22 °F (1935)
Degree Days  
Heating Degree Days 41 48  
Month to date heating degree days 783 907  
Since 1 July heating degree days 1598 1901  
Cooling Degree Days 0 0  
Month to date cooling degree days 0 0  
Year to date cooling degree days 39 61  
Moisture  
Dew Point 19 °F    
Average Humidity 87    
Maximum Humidity 96    
Minimum Humidity 72    
Precipitation  
Precipitation 0.00 in 0.03 in 0.20 in (1919)
Month to date precipitation 0.22 0.67  
Year to date precipitation 8.03 9.34  
Snow  
Snow 0.00 in 0.40 in 3.90 in (1955)
Month to date snowfall 2.0 7.8  
Since 1 July snowfall 2.0 9.6  
Since 1 September snowfall 2.0 9.6  
Snow Depth 1.00 in    
Sea Level Pressure  
Sea Level Pressure 29.58 in    
Wind  
Wind Speed 2 mph (NE)    
Max Wind Speed 9 mph    
Max Gust Speed -    
Visibility 10 miles    
Events Fog    
T = Trace of Precipitation, MM = Missing Value Source: NWS Daily Summary

Daily Weather History Graph

Daily Weather History Graph

Search for Another Location

Airport:

Trip Planner

Search our weather history database for the weather conditions in past years. The results will help you decide how hot, cold, wet, or windy it might be!

Date:

Astronomy

Oct. 24, 2011 Rise Set
Actual Time 9:12 AM AKDT 5:57 PM AKDT
Civil Twilight 8:20 AM AKDT 6:49 PM AKDT
Nautical Twilight 7:22 AM AKDT 7:46 PM AKDT
Astronomical Twilight 6:26 AM AKDT 8:43 PM AKDT
Moon 6:04 AM AKDT (10/24) 4:53 PM AKDT (10/24)
Length of Visible Light 10h 29m
Length of Day
8h 45m
Waning Crescent, 6% of the Moon is Illuminated
Oct 24
Waning Crescent
Oct 26
New
Nov 2
First Quarter
Nov 10
Full
Nov 18
Last Quarter

Hourly Weather History & Observations

Time (AKDT) Temp. Windchill Dew Point Humidity Pressure Visibility Wind Dir Wind Speed Gust Speed Precip Events Conditions
12:53 AM 19.9 °F 14.9 °F 19.0 °F 96% 29.66 in 10.0 mi NNE 3.5 mph - N/A   Mostly Cloudy
1:53 AM 17.1 °F - 14.0 °F 88% 29.66 in 10.0 mi Calm Calm - N/A   Mostly Cloudy
2:24 AM 15.8 °F - 14.0 °F 93% 29.62 in 10.0 mi Calm Calm - N/A Fog Patches of Fog
2:53 AM 18.0 °F - 15.1 °F 88% 29.65 in 10.0 mi Calm Calm - N/A Fog Patches of Fog
3:53 AM 15.1 °F 7.7 °F 12.9 °F 91% 29.64 in 10.0 mi NNE 4.6 mph - N/A   Mostly Cloudy
4:53 AM 17.1 °F - 14.0 °F 88% 29.62 in 10.0 mi Calm Calm - N/A   Mostly Cloudy
5:53 AM 16.0 °F - 12.9 °F 88% 29.61 in 10.0 mi Calm Calm - N/A   Mostly Cloudy
6:53 AM 15.1 °F - 12.0 °F 88% 29.62 in 10.0 mi Calm Calm - N/A   Mostly Cloudy
7:53 AM 16.0 °F - 12.9 °F 88% 29.61 in 10.0 mi Calm Calm - N/A   Mostly Cloudy
8:53 AM 17.1 °F - 14.0 °F 88% 29.60 in 10.0 mi Calm Calm - N/A   Mostly Cloudy
9:53 AM 16.0 °F - 12.9 °F 88% 29.61 in 10.0 mi Calm Calm - N/A   Mostly Cloudy
10:53 AM 19.0 °F - 16.0 °F 88% 29.61 in 10.0 mi Calm Calm - N/A   Overcast
11:53 AM 24.1 °F 18.2 °F 21.9 °F 91% 29.63 in 10.0 mi SSW 4.6 mph - N/A   Overcast
12:53 PM 26.1 °F - 24.1 °F 92% 29.63 in 10.0 mi Calm Calm - N/A   Overcast
1:53 PM 27.0 °F 21.6 °F 23.0 °F 85% 29.63 in 10.0 mi NE 4.6 mph - N/A   Mostly Cloudy
2:53 PM 28.9 °F 25.2 °F 23.0 °F 78% 29.63 in 10.0 mi NE 3.5 mph - N/A   Mostly Cloudy
3:53 PM 26.1 °F - 21.9 °F 84% 29.62 in 10.0 mi Calm Calm - N/A   Mostly Cloudy
4:53 PM 26.1 °F - 21.9 °F 84% 29.59 in 10.0 mi Calm Calm - N/A   Mostly Cloudy
5:53 PM 23.0 °F 17.0 °F 21.0 °F 92% 29.57 in 10.0 mi NE 4.6 mph - N/A   Mostly Cloudy
6:53 PM 27.0 °F 19.5 °F 23.0 °F 85% 29.54 in 10.0 mi NE 6.9 mph - N/A   Mostly Cloudy
7:53 PM 26.1 °F 20.5 °F 23.0 °F 88% 29.50 in 10.0 mi NE 4.6 mph - N/A   Overcast
8:53 PM 28.0 °F 21.7 °F 23.0 °F 81% 29.47 in 10.0 mi NE 5.8 mph - N/A   Overcast
9:53 PM 28.0 °F 21.7 °F 23.0 °F 81% 29.45 in 10.0 mi NNE 5.8 mph - N/A   Overcast
10:53 PM 30.9 °F 25.2 °F 26.1 °F 82% 29.43 in 10.0 mi North 5.8 mph - N/A   Overcast
11:53 PM 35.1 °F 27.9 °F 27.0 °F 72% 29.41 in 10.0 mi NNE 9.2 mph - N/A   Overcast